{"data":{"norad_id":64592,"epoch":"2026-05-25T04:17:53.791584Z","epoch_age_seconds":66800,"freshness":"FRESH","line1":"1 64592U 25135BS  26145.17909481  .00001406  00000+0  13823-3 0  9999","line2":"2 64592  97.7730 260.1187 0004161  74.9430 285.2250 14.93718073 50478","mean_motion":14.93718073,"eccentricity":0.0004161,"inclination_deg":97.773,"raan_deg":260.1187,"arg_perigee_deg":74.943,"mean_anomaly_deg":285.225,"bstar":0.00013823,"rev_number":5047,"period_min":96.403734146959,"perigee_km":583.45665275505,"apogee_km":589.25250264601,"semimajor_km":6964.4915777005,"source":"CELESTRAK","updated_at":"2026-05-25T13:38:04.657723Z"}}